Regional Weather Roundup
Issued by NWS

Home | Current Version | Previous Version | Graphics & Text | Print | Product List | Glossary On
Versions: 1 2 3 4 5 6 7 8 9 10 11 12 13 14 15 16 17 18 19 20 21 22 23 24 25 26 27 28 29 30 31 32 33 34 35 36 37 38 39 40 41 42 43 44 45 46 47 48 49 50
000
ASUS43 KBIS 210410
RWRND

NORTH DAKOTA REGIONAL WEATHER ROUNDUP
NATIONAL WEATHER SERVICE BISMARCK ND
1100 PM CDT WED SEP 20 2017

NOTE: "FAIR" INDICATES FEW OR NO CLOUDS BELOW 12,000 FEET WITH NO
SIGNIFICANT WEATHER AND/OR OBSTRUCTIONS TO VISIBILITY.


NDZ001>003-009>011-017-210500-
NORTHWEST NORTH DAKOTA

CITY           SKY/WX    TMP DP  RH WIND       PRES   REMARKS
WILLISTON      CLEAR     53  36  52 S7        29.63R
MINOT          CLEAR     51  37  58 SE8       29.67R
MINOT AFB      CLEAR     47  37  70 S6        29.65R
$$

NDZ018>021-031>035-040>046-210500-
SOUTHWEST NORTH DAKOTA

CITY           SKY/WX    TMP DP  RH WIND       PRES   REMARKS
BISMARCK       MOCLDY    53  41  63 SE7       29.75R
DICKINSON      CLOUDY    49  36  61 S9        29.69S
GARRISON         N/A     56  43  61 S10       29.69R
HETTINGER ARPT CLOUDY    54  34  46 SE6       29.74F
$$

NDZ004>008-012>016-024-026-027-054-210500-
NORTHEAST NORTH DAKOTA

CITY           SKY/WX    TMP DP  RH WIND       PRES   REMARKS
GRAND FORKS    CLEAR     56  46  69 S12       29.80R
GRND FRKS AFB  CLEAR     54  43  66 S10       29.80R
DEVILS LAKE    CLEAR     60  41  49 S16       29.76S
$$

NDZ022-023-025-028>030-036>039-047>053-210500-
SOUTHEAST NORTH DAKOTA

CITY           SKY/WX    TMP DP  RH WIND       PRES   REMARKS
FARGO          CLEAR     61  44  53 S10       29.85R
JAMESTOWN      CLOUDY    53  43  68 S7        29.80S
$$





USA.gov is the U.S. government's official web portal to all federal, state and local government web resources and services.